{"data":{"norad_id":58000,"intl_designator":"2023-153K","name":"STARLINK-30545","alt_names":[],"object_type":"PAYLOAD","status":"ACTIVE","operator":null,"country":"US","launch_date":"2023-10-05","launch_site_code":"AFETR","launch_vehicle":null,"mission":null,"orbit_class":"UNKNOWN","rcs_meters":null,"size_class":null,"mass_kg":null,"dimensions":null,"purposes":["comms"],"wikipedia_slug":null,"has_3d_model":false,"image_url":null,"decayed_at":null,"tle_current":{"epoch":"2026-05-24T22:43:29.606880Z","epoch_age_seconds":90204,"freshness":"FRESH","line1":"1 58000U 23153K   26144.94687045  .00000939  00000+0  43636-4 0  9993","line2":"2 58000  43.0073 355.9858 0001308 287.4453  72.6256 15.27587499146567","mean_motion":15.27587499,"eccentricity":0.0001308,"inclination_deg":43.0073,"raan_deg":355.9858,"arg_perigee_deg":287.4453,"mean_anomaly_deg":72.6256,"bstar":4.3636e-5,"rev_number":14656,"period_min":94.266285953679,"perigee_km":482.12920122346,"apogee_km":483.92408163206,"semimajor_km":6861.1636414278,"source":"CELESTRAK","updated_at":"2026-05-25T13:38:18.491270Z"}}}